Погода в Лекарственном

Россия / Республика Крым     44°56′38″N   33°49′13″E
темп.,
°C
ветер,
м/с
пор.,
м/с
влажн.,
%
обл.,
%
осадки,
мм/ч
давл.,
гПа
погр.,
м
6 мая, чт
чт600:00+8вюв11647 0.0 101313
03:00+8вюв22535 0.0 101214
06:00+8вюв224780 0.0 101114
09:00+16ю013489 0.0 1011319
12:00+19зсз4232100 0.0 1011981
15:00+17зсз54390 0.0 1012572
18:00+15зсз33515 0.0 1013333
21:00+11з11805 0.0 101510
7 мая, пт
пт700:00+10юв117885 0.0 101512
03:00+12ссз116562 0.0 101610
06:00+10в11738 0.0 101612
09:00+16св115095 0.0 1016429
12:00+20з3245100 0.0 1016910
15:00+19зюз554763 0.0 1016541
18:00+17зюз45565 0.0 1015289
21:00+13вюв2268100 0.0 101412
8 мая, сб
сб800:00+13юв3365100 0.0 101328
03:00+12юв3361100 0.0 101221
06:00+13юв3366100 0.0 101132
09:00+20юв124842 0.0 1011299
12:00+24зсз43375 0.0 10101422
15:00+17зсз676528 0.0 1012495
18:00+16ссз91074100 0.0 1013846
21:00+11ссв71277100 0.2 1015814
9 мая, вс
вс900:00+10с61094100 2.6 1017688
03:00+9с51183100 5.0 1018677
06:00+7ссз410865 0.1 1021333
09:00+11с69564 0.1 10241242
12:00+14ссз68395 0.0 10251981
15:00+15сз673966 0.0 10252450
18:00+14сз564510 0.0 10261664
21:00+10сз48691 0.0 1028175
10 мая, пн
пн1000:00+7ююв228119 0.0 102824
03:00+7ююв11825 0.0 102814
06:00+7вюв11795 0.0 102816
09:00+13ссв23555 0.0 1027621
12:00+16ссз46385 0.0 10262294
15:00+17ссз46385 0.0 10251973
18:00+16с664263 0.0 10231947
21:00+10с34615 0.0 102352